Regional Weather Roundup
Issued by NWS New Orleans/Baton Rouge, LA

Home | Current Version | Previous Version | Text Only | Print | Product List | Glossary On
Versions: 1 2 3 4 5 6 7 8 9 10 11 12 13 14 15 16 17 18 19 20 21 22 23 24 25 26 27 28
000
ASUS44 KLIX 271813
RWRLIX
NEW ORLEANS REGIONAL WEATHER ROUNDUP
NATIONAL WEATHER SERVICE NEW ORLEANS LA
100 PM CDT TUE JUN 27 2017

NOTE: "FAIR" INDICATES FEW OR NO CLOUDS BELOW 12,000 FEET WITH NO
      SIGNIFICANT WEATHER AND/OR OBSTRUCTIONS TO VISIBILITY.
      SKY/WX - SKY CONDITION AND SIGNIFICANT WEATHER.
      TMP - AIR TEMPERATURE.     DP    - DEWPOINT TEMPERATURE.
      RH  - RELATIVE HUMIDITY.   PRES  - PRESSURE.
      HI  - HEAT INDEX.          WCI   - WIND CHILL INDEX.

*  THESE STATIONS ARE NOT NWS OR FAA STATIONS AND ARE NOT UNDER
   NWS QUALITY CONTROL.

LAZ038-040-048-061>063-065>067-069-271900-
SOUTHEAST LOUISIANA

CITY           SKY/WX    TMP DP  RH WIND       PRES   REMARKS
N.O. INTL ARPT CLOUDY    85  61  44 NE8       30.02S
6HR MIN TEMP:  77; 6HR MAX TEMP:  86;

N.O. LAKEFRONT CLOUDY    85  65  51 NE9       30.03S
6HR MIN TEMP:  80; 6HR MAX TEMP:  85;

N.O. DOWNTOWN*   N/A     85  62  46 NE6         N/A
6HR MIN TEMP:  79; 6HR MAX TEMP:  86;

RESERVE*       MOCLDY    87  69  53 NE7       30.03S
6HR MIN TEMP:  77; 6HR MAX TEMP:  89;

SLIDELL        CLOUDY    83  65  54 NE5       30.03S
6HR MIN TEMP:  73; 6HR MAX TEMP:  84;

BATON ROUGE    CLOUDY    85  67  54 NE6       30.03F
6HR MIN TEMP:  73; 6HR MAX TEMP:  86;

BOOTHVILLE     CLOUDY    82  73  74 E5        30.02F
6HR MIN TEMP:  77; 6HR MAX TEMP:  83; 6HR PCP: TRACE;

BELLE CHASSE   NOT AVBL
BOGALUSA*        N/A     87  62  44 E7        30.05S
6HR MIN TEMP:  70; 6HR MAX TEMP:  87;

GALLIANO*      CLOUDY    81  71  71 CALM      30.02F
6HR MIN TEMP:  76; 6HR MAX TEMP:  81; 6HR PCP:  0.04;

NEW ROADS*       N/A     85  71  62 E6        30.03F
6HR MIN TEMP:  73; 6HR MAX TEMP:  85;

GONZALES*      CLOUDY    85  68  57 CALM      30.02S
6HR MIN TEMP:  74; 6HR MAX TEMP:  85; 6HR PCP:  0.02;

HAMMOND*       CLOUDY    86  61  42 NE3       30.03S
HOUMA*         PTSUNNY   84  75  74 E6        30.02F
PORT FOURCHON* CLEAR    N/A N/A N/A E6        30.02F

$$

MSZ070-080>082-271900-
SOUTHERN MISSISSIPPI

CITY           SKY/WX    TMP DP  RH WIND       PRES   REMARKS
MCCOMB         CLOUDY    85  58  39 VRB3      30.05F
6HR MIN TEMP:  71; 6HR MAX TEMP:  85;

GULFPORT       CLOUDY    85  67  54 N6        30.02F
6HR MIN TEMP:  72; 6HR MAX TEMP:  85;

BILOXI         NOT AVBL
PASCAGOULA     CLOUDY    85  69  58 N7        30.02F
6HR MIN TEMP:  71; 6HR MAX TEMP:  88;

STENNIS ARPT*  MOSUNNY   82  68  61 VRB5      30.03F

$$

COASTAL OBSERVATIONS
LAKE AND NEARSHORE STATIONS

STATION/POSITION TIME  TEMP    WIND        PRES    WAVE
                       AIR SEA DIR/SP/G            HT/PER
                 (UTC) (F)     (DEG/KT/KT) (MB)    (FT/S)
PASCAGOULA       1748   82     230/  4/  6 1016.3
WAVELAND YACHT   1748   80 81   20/  4/  4 1016.8
GRAND ISLE       1748   81 85   70/  4/  6 1016.7
SOUTHWEST PASS   1748   88      80/  4/  5   N/A
NEW CANAL        1748   82 83   40/  8/  9 1016.7
SHELL BEACH      1748   81 85   10/  6/  7 1016.7

OFFSHORE STATIONS

STATION/POSITION TIME  TEMP    WIND        PRES    WAVE
                       AIR SEA DIR/SP/G            HT/PER
                 (UTC) (F)     (DEG/KT/KT) (MB)    (FT/S)
64 S DAUPHIN ISL 1750   83 85  130/  2/  4 1016.5    1/ 7

$$





USA.gov is the U.S. government's official web portal to all federal, state and local government web resources and services.